[[{"header":{"parameterUnit":"m.s-1","parameterCategory":1,"la1":30.2991,"la2":30.254,"lo1":-89.0895,"lo2":-89.0444,"dy":0.0017,"dx":0.0017,"nx":28,"ny":28,"refTime":"2024-03-25T21:00:00:Z","depth":0,"parameterNumber":2,"parameterNumberName":"U-component_of_WINDS"},"data":[0,0,0,0,0,0,0,0,0,0,0,0,0,0,0,0,0,0,0,0,0,0,0,0,0,0,0,0,0,0,0,0,0,0,0,0,0,0,0,0,0,0,0,0,0,0,0,0,0,0,0,0,0,0,0,0,0,0,-0.6048,-0.6048,0,-0.6078,-0.6079,-0.6079,-0.6064,-0.6064,-0.6063,-0.6062,-0.6094,-0.6095,-0.6097,0,0,0,0,0,0,0,0,0,0,0,0,0,-0.5977,-0.5978,-0.6048,-0.6048,-0.6049,-0.6078,-0.6079,-0.6079,-0.6065,-0.6064,-0.6063,-0.6062,-0.6093,-0.6095,-0.6097,0,0,0,0,0,0,0,0,0,0,0,0,0,-0.6007,-0.5979,-0.6048,-0.6045,-0.6045,-0.6078,-0.6079,-0.6079,-0.6065,-0.6064,-0.6062,-0.6061,-0.6092,-0.6095,-0.6097,-0.6135,0,0,-0.6104,-0.6105,0,0,0,0,0,0,0,0,-0.6006,-0.601,-0.6045,-0.6045,-0.6045,-0.6066,-0.6065,-0.6098,-0.6065,-0.6057,-0.6062,-0.6061,-0.6085,-0.6088,-0.6097,-0.6136,-0.6138,-0.6104,-0.6106,-0.6107,-0.6107,0,0,0,0,0,0,0,-0.6004,-0.6009,-0.606,-0.6046,-0.6046,-0.6042,-0.6045,-0.6071,-0.6078,-0.6058,-0.6057,-0.6061,-0.6085,-0.6094,-0.6097,-0.6138,-0.6104,-0.6106,-0.6108,-0.6109,-0.621,-0.6211,0,0,0,0,0,0,-0.6002,-0.6007,-0.6059,-0.6061,-0.6022,-0.6044,-0.6048,-0.6061,-0.6077,-0.6079,-0.6062,-0.606,-0.6091,-0.6094,-0.6098,-0.6144,-0.6107,-0.6109,-0.611,-0.6208,-0.621,-0.6211,0,0,0,0,0,0,-0.6,-0.6006,-0.6058,-0.6034,-0.604,-0.6047,-0.6062,-0.6062,-0.6071,-0.608,-0.6081,-0.607,-0.609,-0.6095,-0.6126,-0.6144,-0.611,-0.6112,-0.6207,-0.6209,-0.6211,-0.6235,0,0,0,0,0,0,-0.5998,-0.6006,-0.6021,-0.6034,-0.6041,-0.6085,-0.6063,-0.6064,-0.6075,-0.6073,-0.6088,-0.6089,-0.609,-0.6122,-0.6128,-0.6147,-0.6114,-0.6205,-0.6208,-0.621,-0.6232,-0.6237,-0.6241,0,0,0,0,0,-0.5996,-0.6026,-0.6022,-0.6028,-0.606,-0.6086,-0.609,-0.609,-0.6077,-0.6091,-0.6097,-0.6089,-0.6141,-0.6126,-0.6132,-0.6152,-0.6204,-0.6207,-0.621,-0.623,-0.6236,-0.6241,0,0,0,0,0,0,-0.6015,-0.6028,-0.6023,-0.6059,-0.6072,-0.6084,-0.6102,-0.6096,-0.6113,-0.6111,-0.6109,-0.6113,-0.6145,-0.6151,-0.6133,-0.6189,-0.6171,-0.6175,-0.6184,-0.619,-0.6194,-0.6192,-0.6116,0,0,0,0,0,-0.6024,-0.6044,-0.6054,-0.6085,-0.6091,-0.6096,-0.6107,-0.6106,-0.6119,-0.6124,-0.6132,-0.6145,-0.6164,-0.6177,-0.6195,-0.6232,-0.6236,-0.6249,-0.6254,-0.6258,-0.6262,-0.6281,-0.6288,-0.6221,-0.6221,-0.6221,0,0,-0.6042,-0.6051,-0.6064,-0.6089,-0.6099,-0.612,-0.61,-0.6124,-0.6139,-0.6128,-0.6157,-0.6163,-0.6178,-0.6212,-0.6227,-0.6218,-0.628,-0.6261,-0.6264,-0.6266,-0.6285,-0.6291,-0.6297,-0.6223,-0.6222,-0.6222,0,0,-0.6085,-0.6094,-0.6121,-0.6131,-0.6145,-0.6148,-0.6154,-0.6167,-0.617,-0.62,-0.6191,-0.621,-0.6243,-0.6253,-0.6263,-0.6309,-0.6302,-0.6315,-0.6339,-0.6359,-0.6364,-0.6369,-0.6385,-0.6391,-0.6319,-0.6319,-0.6319,0,-0.6106,-0.6137,-0.6135,-0.6159,-0.617,-0.616,-0.6187,-0.6196,-0.6216,-0.6224,-0.6213,-0.6254,-0.6263,-0.63,-0.6311,-0.6319,-0.6326,-0.6314,-0.6363,-0.6368,-0.6372,-0.6388,-0.6394,-0.632,-0.632,-0.632,-0.632,0,-0.6161,-0.6183,-0.6203,-0.6222,-0.6235,-0.626,-0.6262,-0.6275,-0.6272,-0.6276,-0.6306,-0.6316,-0.6336,-0.6344,-0.6341,-0.638,-0.6374,-0.6363,-0.6345,-0.638,-0.6395,-0.6401,-0.6322,-0.6322,-0.6321,-0.6321,0,0,-0.622,-0.6236,-0.6244,-0.6252,-0.6267,-0.6284,-0.6308,-0.6327,-0.6339,-0.6352,-0.6373,-0.64,-0.6391,-0.6402,-0.64,-0.6417,-0.6453,-0.6404,-0.6404,-0.6413,-0.6496,-0.6504,-0.6511,-0.6448,-0.6449,-0.645,-0.6495,0,-0.6264,-0.6307,-0.6306,-0.6345,-0.6365,-0.6355,-0.6376,-0.6387,-0.6391,-0.6408,-0.6412,-0.6432,-0.6417,-0.6424,-0.644,-0.6445,-0.6469,-0.6441,-0.6467,-0.6468,-0.6465,-0.6519,-0.6528,-0.657,-0.65,-0.6501,-0.6502,0,-0.6323,-0.6338,-0.638,-0.6391,-0.6399,-0.6418,-0.6436,-0.6452,-0.6464,-0.6465,-0.6477,-0.6472,-0.6497,-0.6477,-0.651,-0.6491,-0.6501,-0.6505,-0.6507,-0.651,-0.6488,-0.6524,-0.6583,-0.659,-0.6511,-0.651,-0.651,0,-0.6361,-0.6392,-0.6421,-0.6428,-0.6442,-0.6456,-0.6462,-0.6473,-0.6484,-0.6499,-0.6507,-0.6524,-0.6534,-0.6547,-0.6547,-0.6533,-0.6581,-0.6561,-0.6583,-0.6583,-0.6595,-0.6594,-0.6657,-0.66,-0.66,-0.66,-0.66,0,-0.6412,-0.6438,-0.6439,-0.6457,-0.6485,-0.6483,-0.6511,-0.6516,-0.6525,-0.6544,-0.6536,-0.6553,-0.6552,-0.6569,-0.6569,-0.6597,-0.6601,-0.6603,-0.6603,-0.6605,-0.6604,-0.6612,-0.6609,-0.6601,-0.6601,-0.6601,-0.66,0,-0.646,-0.6462,-0.6493,-0.6503,-0.6506,-0.6527,-0.6535,-0.6552,-0.6554,-0.6578,-0.6583,-0.6587,-0.6607,-0.6608,-0.6631,-0.6631,-0.6665,-0.6661,-0.6661,-0.666,-0.6682,-0.6681,-0.6753,-0.6763,-0.6698,-0.6699,-0.67,0,-0.6493,-0.6513,-0.6525,-0.6537,-0.6544,-0.6563,-0.6574,-0.6572,-0.6584,-0.6599,-0.6614,-0.6633,-0.6649,-0.6681,-0.6686,-0.6704,-0.6701,-0.6725,-0.6704,-0.6704,-0.6702,-0.6701,-0.6703,-0.673,-0.673,-0.6731,-0.6731,0,-0.6551,-0.655,-0.6567,-0.6584,-0.6598,-0.6612,-0.6624,-0.6634,-0.6633,-0.6647,-0.6668,-0.668,-0.6703,-0.6722,-0.6739,-0.6746,-0.6739,-0.6738,-0.6744,-0.6746,-0.6745,-0.6747,-0.6673,-0.6736,-0.6736,-0.6736,-0.6735,-0.6735,-0.6593,-0.661,-0.6621,-0.664,-0.6649,-0.666,-0.6677,-0.668,-0.6697,-0.6716,-0.6714,-0.6737,-0.6747,-0.6769,-0.6777,-0.6795,-0.6786,-0.6795,-0.6797,-0.68,-0.6802,-0.6742,-0.6798,-0.6797,-0.6797,-0.6797,-0.6797,0,-0.6651,-0.6657,-0.6674,-0.6692,-0.6707,-0.6698,-0.6711,-0.6724,-0.6744,-0.6755,-0.677,-0.6793,-0.6811,-0.6817,-0.6835,-0.6848,-0.6845,-0.6853,-0.6852,-0.6854,-0.6809,-0.6802,-0.6855,-0.6855,-0.6855,-0.6855,-0.6855,-0.6855,-0.6683,-0.6711,-0.6712,-0.6744,-0.675,-0.6772,-0.678,-0.6791,-0.6799,-0.6826,-0.6841,-0.6844,-0.6853,-0.6871,-0.6888,-0.6889,-0.6896,-0.6905,-0.6905,-0.6863,-0.6857,-0.6852,-0.6845,-0.6907,-0.6907,-0.6949,-0.6949,-0.695]},{"header":{"parameterUnit":"m.s-1","parameterCategory":1,"la1":30.2991,"la2":30.254,"lo1":-89.0895,"lo2":-89.0444,"dy":0.0017,"dx":0.0017,"nx":28,"ny":28,"refTime":"2024-03-25T21:00:00:Z","depth":0,"parameterNumber":3,"parameterNumberName":"V-component_of_WINDS"},"data":[0,0,0,0,0,0,0,0,0,0,0,0,0,0,0,0,0,0,0,0,0,0,0,0,0,0,0,0,0,0,0,0,0,0,0,0,0,0,0,0,0,0,0,0,0,0,0,0,0,0,0,0,0,0,0,0,0,0,-2.6944,-2.6944,0,-2.6954,-2.6954,-2.6954,-2.7012,-2.7013,-2.7015,-2.7016,-2.7022,-2.7021,-2.702,0,0,0,0,0,0,0,0,0,0,0,0,0,-2.6973,-2.6972,-2.6944,-2.6944,-2.6944,-2.6954,-2.6954,-2.6954,-2.7012,-2.7013,-2.7015,-2.7017,-2.7023,-2.7021,-2.702,0,0,0,0,0,0,0,0,0,0,0,0,0,-2.6969,-2.6972,-2.6944,-2.6974,-2.6977,-2.6954,-2.6954,-2.6954,-2.7011,-2.7014,-2.7016,-2.7018,-2.7023,-2.7022,-2.702,-2.6967,0,0,-2.7015,-2.7014,0,0,0,0,0,0,0,0,-2.6969,-2.6968,-2.697,-2.6972,-2.6975,-2.6984,-2.6967,-2.6958,-2.7011,-2.6998,-2.7016,-2.7019,-2.7008,-2.7007,-2.7004,-2.6967,-2.6968,-2.7014,-2.7013,-2.7013,-2.7012,0,0,0,0,0,0,0,-2.697,-2.6968,-2.6948,-2.697,-2.6973,-2.6987,-2.6989,-2.6965,-2.6991,-2.7,-2.7004,-2.7004,-2.701,-2.7006,-2.7005,-2.6968,-2.7015,-2.7013,-2.7012,-2.7011,-2.6891,-2.6889,0,0,0,0,0,0,-2.6966,-2.6968,-2.6948,-2.6948,-2.6978,-2.6985,-2.6987,-2.6979,-2.6991,-2.6995,-2.7003,-2.7007,-2.7008,-2.7007,-2.7005,-2.6947,-2.7013,-2.7011,-2.701,-2.6893,-2.6891,-2.6888,0,0,0,0,0,0,-2.6967,-2.6964,-2.6947,-2.6959,-2.6958,-2.6982,-2.6973,-2.6978,-2.6975,-2.6994,-2.6998,-2.6994,-2.7009,-2.7008,-2.6977,-2.6948,-2.701,-2.7009,-2.6896,-2.6892,-2.6889,-2.6827,0,0,0,0,0,0,-2.6967,-2.6964,-2.6944,-2.6958,-2.6957,-2.6919,-2.6971,-2.6977,-2.6972,-2.6978,-2.6987,-2.6991,-2.7011,-2.6979,-2.6975,-2.6947,-2.7007,-2.6898,-2.6894,-2.689,-2.6832,-2.6822,-2.6814,0,0,0,0,0,-2.6968,-2.6924,-2.6943,-2.694,-2.6934,-2.6917,-2.6916,-2.6942,-2.6969,-2.695,-2.6963,-2.699,-2.6951,-2.6976,-2.6972,-2.6942,-2.69,-2.6895,-2.6891,-2.6836,-2.6824,-2.6814,0,0,0,0,0,0,-2.6903,-2.6927,-2.6947,-2.6907,-2.691,-2.6927,-2.6903,-2.6928,-2.6922,-2.6927,-2.6958,-2.696,-2.6925,-2.693,-2.6957,-2.6893,-2.6931,-2.6925,-2.6891,-2.688,-2.6871,-2.6871,-2.7006,0,0,0,0,0,-2.6885,-2.6871,-2.6891,-2.6854,-2.6855,-2.6879,-2.6872,-2.6892,-2.6896,-2.6896,-2.6907,-2.6908,-2.6897,-2.6888,-2.6879,-2.6833,-2.6837,-2.6811,-2.6802,-2.6794,-2.6789,-2.6768,-2.6757,-2.6872,-2.6872,-2.6872,0,0,-2.6846,-2.6857,-2.6846,-2.6842,-2.6846,-2.6831,-2.6879,-2.6859,-2.6848,-2.6893,-2.6866,-2.6873,-2.6877,-2.684,-2.6824,-2.6843,-2.6758,-2.6788,-2.6782,-2.6781,-2.6762,-2.6751,-2.6741,-2.6869,-2.6869,-2.687,0,0,-2.6767,-2.6773,-2.6745,-2.6749,-2.6756,-2.6773,-2.6766,-2.678,-2.6787,-2.6761,-2.6795,-2.6782,-2.676,-2.6763,-2.6761,-2.6686,-2.6712,-2.6682,-2.6635,-2.6614,-2.6605,-2.6597,-2.6573,-2.6563,-2.6677,-2.6676,-2.6676,0,-2.6717,-2.6696,-2.6726,-2.6706,-2.6704,-2.6746,-2.6718,-2.672,-2.6722,-2.672,-2.6742,-2.6719,-2.6724,-2.6689,-2.6671,-2.6667,-2.6661,-2.6681,-2.6604,-2.6597,-2.659,-2.6567,-2.6557,-2.6673,-2.6673,-2.6674,-2.6674,0,-2.6636,-2.6621,-2.6596,-2.6601,-2.6596,-2.6571,-2.6598,-2.6589,-2.661,-2.6624,-2.6597,-2.6606,-2.66,-2.6593,-2.6611,-2.6561,-2.6573,-2.6599,-2.6638,-2.6575,-2.6554,-2.6545,-2.6668,-2.6669,-2.667,-2.6671,0,0,-2.6515,-2.6539,-2.653,-2.6534,-2.6546,-2.6535,-2.6513,-2.6509,-2.6502,-2.6502,-2.6485,-2.6468,-2.6493,-2.6491,-2.6511,-2.6492,-2.6436,-2.6521,-2.6522,-2.6507,-2.6383,-2.6365,-2.6354,-2.6453,-2.6451,-2.645,-2.6384,0,-2.6442,-2.6407,-2.6435,-2.6395,-2.6382,-2.6423,-2.6404,-2.641,-2.6423,-2.6414,-2.6428,-2.6416,-2.6449,-2.6449,-2.6432,-2.6446,-2.6412,-2.6451,-2.6438,-2.6437,-2.6437,-2.6342,-2.6322,-2.6259,-2.6375,-2.6374,-2.6373,0,-2.6351,-2.6351,-2.631,-2.6329,-2.6324,-2.6307,-2.6307,-2.6298,-2.6305,-2.6316,-2.6316,-2.6341,-2.6321,-2.6359,-2.6332,-2.6359,-2.6355,-2.6361,-2.6359,-2.636,-2.6402,-2.6342,-2.6239,-2.623,-2.636,-2.6361,-2.6362,0,-2.627,-2.6259,-2.6235,-2.6236,-2.6256,-2.6243,-2.6251,-2.626,-2.6257,-2.6257,-2.6256,-2.6252,-2.625,-2.6247,-2.6271,-2.6296,-2.6242,-2.6281,-2.6251,-2.6251,-2.6238,-2.6239,-2.6135,-2.6233,-2.6233,-2.6234,-2.6234,0,-2.6185,-2.6159,-2.6199,-2.6184,-2.6156,-2.6189,-2.616,-2.6172,-2.6181,-2.6169,-2.6203,-2.619,-2.6222,-2.6213,-2.6232,-2.6208,-2.6206,-2.6215,-2.6221,-2.6213,-2.6212,-2.6212,-2.6217,-2.6231,-2.6232,-2.6232,-2.6233,0,-2.609,-2.6115,-2.6092,-2.6114,-2.6119,-2.6098,-2.6116,-2.6103,-2.612,-2.6104,-2.6102,-2.6127,-2.6119,-2.6143,-2.6137,-2.615,-2.6116,-2.6128,-2.6115,-2.6119,-2.6088,-2.6091,-2.5981,-2.5969,-2.6073,-2.6072,-2.6072,0,-2.6035,-2.6016,-2.6038,-2.6033,-2.604,-2.6031,-2.6029,-2.606,-2.6057,-2.6066,-2.6052,-2.6047,-2.6044,-2.6029,-2.6047,-2.6043,-2.6056,-2.6018,-2.6056,-2.605,-2.6058,-2.606,-2.6059,-2.601,-2.6009,-2.6008,-2.6007,0,-2.5935,-2.595,-2.5946,-2.5948,-2.5946,-2.5948,-2.5952,-2.5946,-2.598,-2.5974,-2.5968,-2.5966,-2.5962,-2.5957,-2.5958,-2.5965,-2.5992,-2.5995,-2.5988,-2.5981,-2.5975,-2.598,-2.6095,-2.5997,-2.5998,-2.5999,-2.6,-2.6,-2.586,-2.5847,-2.5861,-2.5856,-2.5864,-2.5868,-2.5858,-2.5875,-2.587,-2.5871,-2.5889,-2.5879,-2.5889,-2.5894,-2.5899,-2.5891,-2.5909,-2.5898,-2.5896,-2.5894,-2.589,-2.5975,-2.5891,-2.5892,-2.5892,-2.5892,-2.5892,0,-2.5764,-2.5776,-2.5772,-2.5779,-2.5776,-2.5803,-2.581,-2.5806,-2.5798,-2.5805,-2.5804,-2.5797,-2.5793,-2.5811,-2.581,-2.5801,-2.5813,-2.5799,-2.5801,-2.5803,-2.5873,-2.588,-2.579,-2.579,-2.579,-2.579,-2.579,-2.579,-2.5714,-2.5694,-2.571,-2.5695,-2.5707,-2.5699,-2.5701,-2.5706,-2.5713,-2.5705,-2.5703,-2.5715,-2.5728,-2.5728,-2.5726,-2.5732,-2.573,-2.5713,-2.5722,-2.5787,-2.5798,-2.5807,-2.5814,-2.5712,-2.5712,-2.5654,-2.5653,-2.5653]}]]